Погода в Баканасе

Погода в Баканасе : погода сейчас, прогноз погоды и архив. Всё, что Вы хотите узнать о погоде в Баканасе!

Хотите узнать прогноз погоды в Баканасе? Тогда Вам сюда: Погода в Баканасе

Поиск расширенной информации на нашем сайте:

Другие новости

Новости СМИ2

Главная страница сайта

Новости сайта

02.10.2013

Напоминаем, что на нашем новом сайте вы можете получить высокодетализированные прогнозы погоды по пунктам России, СНГ и мира (включающие важные для авиации метеовеличины, такие как направление и скорость ветра, видимость, явления погоды, количество и форма облачности, нижняя и верхняя граница облачности), а также ознакомиться с разнообразными материалами по авиационной метеорологии и подборкой полезных ссылок на эту тему.

Сайт Метеоцентр.Азия посвящён разработке технологий оптимизации авиаметеорологического обслуживания, включая проектирование и перспективное создание нескольких автоматизированных авиаметеорологических систем:
- система выпуска высокодетальных прогностических карт явлений погоды для нижнего воздушного пространства по России и ближнему зарубежью;
- система верификации прогнозов TAF (выпускаемых синоптиками официальных АМСГ РФ и ближнего зарубежья) и AUTOTAF (выпускаемых сайтом Метеоцентр.Азия) - выявление ошибок, онлайн-сопоставление с фактической погодой METAR, автоматическое внесение коррективов в прогнозы при резком отклонении фактической погоды от прогноза, подсчёт оправдываемости прогнозов по элементам и в целом;
- система обработки, анализа и отображения авиаметеорологической информации для применения провайдерами метеорологической информации.


Погода в Баканасе - сегодня

Время (UTC), дата Ветер
(°,м/с) 
Видим.   Явления Облачность Т
(°С)
Тd
(°С)
f(%) Тe
(°С)
Pmin
(гПа)
dP
(гПа)
Po
(мм)
O2
(г/м3)
Тmin Tmax R s Состояние
почвы
18 22.05.17 170 (Ю) н/о    ясно 
+18.2 +4.7 41 +19  1005.8  0.2  720  271    +32       
21 22.05.17 тихо ()   н/о    ясно 
+14.7 +10.4 75 +17  1006.2  720  273           
00 23.05.17 260 (З) 2{12}  20000 м    ясно 
+15.1 +9.2 68 +17  1007.3  721  274           
03 23.05.17 300 (СЗ) 20000 м    3/0 верхняя 
[Ci sp]
+26 +8 32 +26  1017.1  1.4  722  264           
06 23.05.17 280 (З) 20000 м    3/0 верхняя 
[Ci sp]
+33.2 +10.1 24 +35  1006.2  0.2  722  258  +13.5         
09 23.05.17 330 (СЗ) 20000 м    8/5 600 м кучево-дожд., верхняя 
[Cb cap|Cc]
+36 +8.1 18 +36  1005.3  -0.5  722  256           
12 23.05.17 350 (С) 20000 м  {гроза}  9/6 600 м кучево-дожд., средняя, верхняя 
[Cb cap|Ac trans|Ci sp]
+31.6 +10.1 27 +34  1008.4  2.4  724  260           
15 23.05.17 350 (С) н/о  зарница  10/10 600 м кучево-дожд. 
[Cb cap]
+26.6 +7.4 30 +27  1011.7  2.4  726  265    +36.5       
18 23.05.17 210 (ЮЗ) н/о  в посл. час ливневой дождь  10/10 600 м кучево-дожд. 
[Cb cap]
+19 +17.7 92 +34  1016.4  3.6  728  270    +36.5       
21 23.05.17 240 (ЮЗ) н/о  дымка  9/6 600 м кучево-дожд., верхняя 
[Cb cap|Ci sp]
+18.2 +17.1 93 +32  1015.6  -1  728  271           
00 24.05.17 тихо () {15}  4000 м  дымка  8/3 600 м кучево-дожд., верхняя 
[Cb cap|Ci sp]
+16.1 +15.3 95 +26  1015.5  -0.4  727  273           
03 24.05.17 220 (ЮЗ) 20000 м    ясно 
+23 +15.4 62 +33  1015.2  7.8  728  267         
06 24.05.17 240 (ЮЗ) 20000 м    4/4 1000 м 
[Cu hum]
+27.8 +12.9 40 +34  1013.7  -0.8  727  263           
09 24.05.17 150 (ЮВ) 20000 м    ясно 
+31.2 +10.9 29 +34  1011  -2.2  726  260           
12 24.05.17 060 (СВ) 20000 м    3/0 верхняя 
[Ci sp]
+31.4 +8.6 24 +31  1009.4  -1.5  725  260           
15 24.05.17 220 (ЮЗ) н/о    8/4 600 м кучево-дожд., верхняя 
[Cb cap|Ci sp]
+25 +12.8 47 +31  1010.4  0.1  725  265    +32.5       
18 24.05.17 100 (В) н/о    6/3 600 м кучево-дожд., верхняя 
[Cb cap|Ci sp]
+22.4 +14 59 +30  1010.6  -0.2  724  267    +32.5       
21 24.05.17 тихо ()   н/о    4/3 600 м кучево-дожд., верхняя 
[Cb cap|Ci sp]
+19 +12.7 67 +25  1010.8  -0.3  724  270           
00 25.05.17 230 (ЮЗ) 2{07}  20000 м    6/3 600 м кучево-дожд., верхняя 
[Cb cap|Ci sp]
+16.6 +12.9 79 +23  1011  -0.1  724  272           
03 25.05.17 тихо ()   20000 м    4/4 2000 м средняя 
[Ac cast]
+25 +14.6 52 +34  1010.3  0.5  725  264           
06 25.05.17 250 (З) 20000 м    4/3 1000 м средняя 
[Cu hum|Ac trans]
+32.2 +11.8 29 +37  1008.7  -0.5  724  259  +14.5         
09 25.05.17 040 (СВ) 20000 м    6/6 600 м кучево-дожд. 
[Cb calv]
+32.7 +8.7 23 +33  1007.4  -1.2  723  259           
12 25.05.17 040 (СВ) 20000 м    4/4 600 м кучево-дожд. 
[Cb cap]
+31.8 +9.1 25 +33  1007.8  0.2  723  259           
15 25.05.17 070 (В) н/о    9/5 600 м кучево-дожд., средняя, верхняя 
[Cb cap|Ac trans|Ci ing]
+26.3 +11.4 39 +30  1009.2  0.6  724  264    +33.4       
18 25.05.17 140 (ЮВ) н/о  гроза без осадков  9/9 600 м кучево-дожд. 
[Cb cap]
+22.2 +11.2 50 +26  1011.2  1.3  725  268    +33.4       
Время (UTC), дата Ветер
(°,м/с) 
Видим.   Явления Облачность Т
(°С)
Тd
(°С)
f(%) Тe
(°С)
Pmin
(гПа)
dP
(гПа)
Po
(мм)
O2
(г/м3)
Тmin Tmax R s Состояние
почвы

Для получения пояснительной информации подведите курсор к названию столбца.

ПОГОДА в Баканасе - архив

Всё, что Вы хотите узнать о погоде в Баканасе - удобно и подробно!

Выберите нужную дату (начиная с 1 января 2015* года) и нажмите кнопку "Найти".
Будут отображены архивные сводки погоды по пункту Баканас, начиная с указанной даты.


Отображать данные в формате CSV (для использования в таблицах Excel)


Внимание! Наш архив погоды предназначен исключительно для личного некоммерческого использования в познавательных целях. Если Вам необходимы официальные справки о состоянии погоды (для производственных, юридических, коммерческих и т.п. целей), обращайтесь в органы Росгидромета.

*Примечание: данная дата относится к архиву по метеостанциям СССР (Россия, СНГ, Балтия).
Архив по метеостанциям Зарубежной Европы и Азии (кроме Китая) хранится 10 дней, по другим регионам земного шара (Китай, Африка, Америка, Австралия, Океания) - 1 день.

Баканас - район местоположения метеостанции


Название, широта, долгота, высота метеостанции:
Баканас 44.8°ш. 76.3°д. 396 м над ур. моря [Казахстан]

Дополнительная информация

В oтличие oт бoльшинства пoгoдных сайтoв мы публикуем пoдрoбную метеoинфoрмацию в детальнoм прoфессиoнальнoм фoрмате.

Характеристики температуры и влажнoсти вoздуха измеряются на высoте 2 м в тени вдали oт зданий и деревьев.
Скoрoсть ветра измеряется на высoте 10 м (на урoвне рoста челoвека скoрoсть ветра ниже в 1.5-2 раза). Если метеoстанция нахoдится в гoрoде или в лесу, тo скoрoсть ветра занижена на 2-4 м/с пo сравнению с oткрытым местoм. Скoрoсть ветра над акватoриями крупных рек и oзёр, а также на вершинах хoлмoв на 2-5 м/с выше, чем в oбычных услoвиях.
Атмoсфернoе давление в разных тoчках местнoсти мoжет значительнo oтличаться oт давления на метеoстанции, в зависимoсти oт услoвий рельефа (при пoдъёме на 10 м давление пoнижается примернo на 1 мм рт.ст.).